Weather History for Rockport, TX

Change the Weather History Date:

Thursday, September 26, 2013

  Actual Average Record
Temperature  
Mean Temperature 82 °F -  
Max Temperature 90 °F 87 °F 95 °F (1979)
Min Temperature 75 °F 69 °F 53 °F (1975)
Cooling Degree Days 17    
Growing Degree Days 32 (Base 50)    
Moisture  
Dew Point 74 °F    
Average Humidity 75    
Maximum Humidity 94    
Minimum Humidity 61    
Precipitation  
Precipitation 0.00 in - - ()
Sea Level Pressure  
Sea Level Pressure 29.84 in    
Wind  
Wind Speed 7 mph (SE)    
Max Wind Speed 14 mph    
Max Gust Speed 20 mph    
Visibility 10 miles    
Events      
Averages and records for this station are not official NWS values.
T = Trace of Precipitation, MM = Missing Value Source: NWS Daily Summary

Daily Weather History Graph

Daily Weather History Graph

Search for Another Location

Airport:

Trip Planner

Search our weather history database for the weather conditions in past years. The results will help you decide how hot, cold, wet, or windy it might be!

Date:

Astronomy

Sep. 26, 2013 Rise Set
Actual Time 7:18 AM CDT 7:19 PM CDT
Civil Twilight 6:55 AM CDT 7:43 PM CDT
Nautical Twilight 6:28 AM CDT 8:10 PM CDT
Astronomical Twilight 6:00 AM CDT 8:37 PM CDT
Moon No Moon Rise 1:46 PM CDT (9/26)
Length of Visible Light 12h 47m
Length of Day
12h 00m
Waning Gibbous, 54% of the Moon is Illuminated
Sep 26
Waning Gibbous
Sep 26
Last Quarter
Oct 4
New
Oct 11
First Quarter
Oct 18
Full

Hourly Weather History & Observations

Time (CDT) Temp. Heat Index Dew Point Humidity Pressure Visibility Wind Dir Wind Speed Gust Speed Precip Events Conditions
12:53 AM 79.0 °F - 73.0 °F 82% 29.83 in 10.0 mi SSE 5.8 mph - N/A   Clear
1:53 AM 79.0 °F - 72.0 °F 79% 29.83 in 10.0 mi South 4.6 mph - N/A   Clear
2:53 AM 79.0 °F - 73.0 °F 82% 29.82 in 10.0 mi South 4.6 mph - N/A   Clear
3:53 AM 75.9 °F - 72.0 °F 87% 29.82 in 10.0 mi SSE 3.5 mph - N/A   Clear
4:53 AM 75.9 °F - 73.0 °F 91% 29.81 in 10.0 mi South 3.5 mph - N/A   Clear
5:53 AM 75.0 °F - 73.0 °F 94% 29.83 in 10.0 mi Calm Calm - N/A   Clear
6:53 AM 77.0 °F - 73.9 °F 90% 29.84 in 10.0 mi SSE 3.5 mph - N/A   Scattered Clouds
7:53 AM 80.1 °F 85.1 °F 75.0 °F 85% 29.84 in 9.0 mi SSE 3.5 mph - N/A   Scattered Clouds
8:53 AM 82.9 °F 90.2 °F 75.0 °F 77% 29.85 in 10.0 mi SE 5.8 mph - N/A   Clear
9:53 AM 86.0 °F 95.1 °F 75.0 °F 70% 29.87 in 10.0 mi ESE 6.9 mph - N/A   Clear
10:53 AM 87.1 °F 97.3 °F 75.9 °F 69% 29.88 in 10.0 mi ESE 8.1 mph - N/A   Mostly Cloudy
11:53 AM 88.0 °F 98.5 °F 75.9 °F 67% 29.88 in 10.0 mi ESE 11.5 mph - N/A   Partly Cloudy
12:44 PM 87.8 °F 99.7 °F 77.0 °F 70% 29.86 in 10.0 mi ESE 12.7 mph - N/A   Overcast
12:51 PM 87.8 °F 97.6 °F 75.2 °F 66% 29.86 in 10.0 mi ESE 10.4 mph - N/A   Mostly Cloudy
12:53 PM 87.1 °F 97.3 °F 75.9 °F 69% 29.87 in 10.0 mi ESE 9.2 mph - N/A   Mostly Cloudy
1:53 PM 88.0 °F 98.5 °F 75.9 °F 67% 29.85 in 10.0 mi ESE 8.1 mph - N/A   Clear
2:53 PM 89.1 °F 100.2 °F 75.9 °F 65% 29.83 in 10.0 mi ESE 10.4 mph - N/A   Clear
3:53 PM 89.1 °F 99.1 °F 75.0 °F 63% 29.82 in 10.0 mi SE 9.2 mph - N/A   Clear
4:53 PM 88.0 °F 95.6 °F 73.0 °F 61% 29.82 in 10.0 mi SSE 10.4 mph - N/A   Clear
5:53 PM 86.0 °F 93.0 °F 73.0 °F 65% 29.81 in 10.0 mi SE 9.2 mph - N/A   Clear
6:53 PM 84.0 °F 90.2 °F 73.0 °F 69% 29.82 in 10.0 mi SE 11.5 mph - N/A   Partly Cloudy
7:53 PM 82.0 °F 87.9 °F 73.9 °F 76% 29.83 in 10.0 mi SE 11.5 mph - N/A   Partly Cloudy
8:53 PM 82.9 °F 90.2 °F 75.0 °F 77% 29.84 in 10.0 mi SE 12.7 mph 19.6 mph N/A   Partly Cloudy
9:53 PM 82.9 °F 90.8 °F 75.9 °F 79% 29.86 in 10.0 mi SE 13.8 mph - N/A   Mostly Cloudy
10:53 PM 82.9 °F 89.4 °F 73.9 °F 74% 29.87 in 10.0 mi SSE 11.5 mph - N/A   Partly Cloudy
11:53 PM 82.0 °F 87.9 °F 73.9 °F 76% 29.87 in 10.0 mi SSE 10.4 mph 17.3 mph N/A   Partly Cloudy